Location: Ferchesar
(52.6477°N, 12.4298°E)
Time: 14:14:51
(UTC+02:00)

Transit 4A - Pass Details

Date: 03 March 2021
Orbit: 869 x 975 km, 66.8° (Epoch: 16 April)

Event Time Altitude Azimuth Distance (km) Brightness Sun altitude
Rises 08:41:49 0° 146° (SE) 3,659 12.3 14.6°
Reaches altitude 10° 08:47:02 10° 110° (ESE) 2,706 12.3 15.3°
Maximum altitude 08:48:13 11° 99° (E) 2,664 11.7 15.4°
Drops below altitude 10° 08:49:23 10° 88° (E) 2,701 11.4 15.6°
Sets 08:54:32 0° 52° (NE) 3,629 11.2 16.2°
